Time,TemperatureF,DewpointF,PressureIn,WindDirection,WindDirectionDegrees,WindSpeedMPH,WindSpeedGustMPH,Humidity,HourlyPrecipIn,Conditions,Clouds,dailyrainin,SolarRadiationWatts/m^2,SoftwareType,DateUTC
2013-06-16 00:03:00,61.3,51.8,29.80,South,182,0.0,0.0,71,0.00,,SKC,0.00,0.00,VWS V14.00,2013-06-16 05:03:00,
2013-06-16 00:08:00,61.3,51.8,29.80,South,183,0.0,0.0,71,0.00,,SKC,0.00,0.00,VWS V14.00,2013-06-16 05:08:00,
2013-06-16 00:13:00,61.4,51.9,29.80,South,183,0.0,0.0,71,0.00,,SKC,0.00,0.00,VWS V14.00,2013-06-16 05:13:00,
2013-06-16 00:18:00,61.5,52.0,29.80,South,183,0.0,0.0,71,0.00,,SKC,0.00,0.00,VWS V14.00,2013-06-16 05:18:00,
2013-06-16 00:23:00,61.6,52.1,29.80,South,183,0.0,0.0,71,0.00,,SKC,0.00,0.00,VWS V14.00,2013-06-16 05:23:00,
2013-06-16 00:28:00,61.6,52.1,29.80,South,183,0.0,0.0,71,0.00,,SKC,0.00,0.00,VWS V14.00,2013-06-16 05:28:00,
2013-06-16 00:33:00,61.7,51.8,29.80,South,183,0.0,0.0,70,0.00,,SKC,0.00,0.00,VWS V14.00,2013-06-16 05:33:00,
2013-06-16 00:38:00,61.6,51.0,29.80,South,183,0.0,0.0,68,0.00,,SKC,0.00,0.00,VWS V14.00,2013-06-16 05:38:00,
2013-06-16 00:43:00,61.7,51.0,29.80,South,183,0.0,0.0,68,0.00,,SKC,0.00,0.00,VWS V14.00,2013-06-16 05:43:00,
2013-06-16 00:48:00,61.7,50.6,29.80,South,183,0.0,0.0,67,0.00,,SKC,0.00,0.00,VWS V14.00,2013-06-16 05:48:00,
2013-06-16 00:53:00,61.7,50.6,29.80,South,183,0.0,0.0,67,0.00,,SKC,0.00,0.00,VWS V14.00,2013-06-16 05:53:00,
2013-06-16 00:58:00,61.8,50.3,29.80,South,183,0.0,0.0,66,0.00,,SKC,0.00,0.00,VWS V14.00,2013-06-16 05:58:00,
2013-06-16 01:03:00,61.8,50.7,29.80,South,183,0.0,0.0,67,0.00,,SKC,0.00,0.00,VWS V14.00,2013-06-16 06:03:00,
2013-06-16 01:08:00,61.8,50.3,29.80,South,183,0.0,0.0,66,0.00,,SKC,0.00,0.00,VWS V14.00,2013-06-16 06:08:00,
2013-06-16 01:13:00,61.7,50.2,29.80,South,183,0.0,0.0,66,0.00,,SKC,0.00,0.00,VWS V14.00,2013-06-16 06:13:00,
2013-06-16 01:18:00,61.6,50.1,29.80,South,183,0.0,0.0,66,0.00,,SKC,0.00,0.00,VWS V14.00,2013-06-16 06:18:00,
2013-06-16 01:23:00,61.6,50.1,29.80,South,183,0.0,0.0,66,0.00,,SKC,0.00,0.00,VWS V14.00,2013-06-16 06:23:00,
2013-06-16 01:28:00,61.5,50.0,29.80,South,183,0.0,0.0,66,0.00,,SKC,0.00,0.00,VWS V14.00,2013-06-16 06:28:00,
2013-06-16 01:33:00,61.4,50.4,29.80,South,183,0.0,0.0,67,0.00,,SKC,0.00,0.00,VWS V14.00,2013-06-16 06:33:00,
2013-06-16 01:38:00,61.3,50.3,29.80,South,183,0.0,0.0,67,0.00,,SKC,0.00,0.00,VWS V14.00,2013-06-16 06:38:00,
2013-06-16 01:43:00,61.2,50.2,29.80,South,183,0.0,0.0,67,0.00,,SKC,0.00,0.00,VWS V14.00,2013-06-16 06:43:00,
2013-06-16 01:48:00,61.1,50.5,29.80,South,183,0.0,0.0,68,0.00,,SKC,0.00,0.00,VWS V14.00,2013-06-16 06:48:00,
2013-06-16 01:53:00,60.9,50.3,29.80,South,183,0.0,0.0,68,0.00,,SKC,0.00,0.00,VWS V14.00,2013-06-16 06:53:00,
2013-06-16 01:58:00,60.7,50.1,29.80,South,183,0.0,0.0,68,0.00,,SKC,0.00,0.00,VWS V14.00,2013-06-16 06:58:00,
2013-06-16 02:03:00,60.6,50.4,29.80,South,183,0.0,0.0,69,0.00,,SKC,0.00,0.00,VWS V14.00,2013-06-16 07:03:00,
2013-06-16 02:08:00,60.5,50.7,29.80,South,183,0.0,0.0,70,0.00,,SKC,0.00,0.00,VWS V14.00,2013-06-16 07:08:00,
2013-06-16 02:13:00,60.4,50.6,29.80,South,183,0.0,0.0,70,0.00,,SKC,0.00,0.00,VWS V14.00,2013-06-16 07:13:00,
2013-06-16 02:18:00,60.3,50.5,29.80,South,183,0.0,0.0,70,0.00,,SKC,0.00,0.00,VWS V14.00,2013-06-16 07:18:00,
2013-06-16 02:23:00,60.2,50.8,29.80,South,183,0.0,0.0,71,0.00,,SKC,0.00,0.00,VWS V14.00,2013-06-16 07:23:00,
2013-06-16 02:29:00,60.0,51.0,29.80,South,183,0.0,0.0,72,0.00,,SKC,0.00,0.00,VWS V14.00,2013-06-16 07:29:00,
2013-06-16 02:43:00,59.7,51.0,29.80,South,183,0.0,0.0,73,0.00,,SKC,0.00,0.00,VWS V14.00,2013-06-16 07:43:00,
2013-06-16 02:48:00,59.6,51.0,29.80,South,183,0.0,0.0,73,0.00,,SKC,0.00,0.00,VWS V14.00,2013-06-16 07:48:00,
2013-06-16 02:53:00,59.5,50.8,29.80,South,183,0.0,0.0,73,0.00,,SKC,0.00,0.00,VWS V14.00,2013-06-16 07:53:00,
2013-06-16 02:58:00,59.5,51.2,29.80,South,183,0.0,0.0,74,0.00,,SKC,0.00,0.00,VWS V14.00,2013-06-16 07:58:00,
2013-06-16 03:03:00,59.4,51.1,29.80,South,183,0.0,0.0,74,0.00,,SKC,0.00,0.00,VWS V14.00,2013-06-16 08:03:00,
2013-06-16 03:08:00,59.4,51.1,29.80,South,183,0.0,0.0,74,0.00,,SKC,0.00,0.00,VWS V14.00,2013-06-16 08:08:00,
2013-06-16 03:13:00,59.4,51.1,29.80,South,183,0.0,0.0,74,0.00,,SKC,0.00,0.00,VWS V14.00,2013-06-16 08:13:00,
2013-06-16 03:18:00,59.3,51.4,29.80,South,183,0.0,0.0,75,0.00,,SKC,0.00,0.00,VWS V14.00,2013-06-16 08:18:00,
2013-06-16 03:23:00,59.2,51.3,29.80,South,183,0.0,0.0,75,0.00,,SKC,0.00,0.00,VWS V14.00,2013-06-16 08:23:00,
2013-06-16 03:28:00,59.1,51.2,29.80,South,183,0.0,0.0,75,0.00,,SKC,0.00,0.00,VWS V14.00,2013-06-16 08:28:00,
2013-06-16 03:33:00,59.0,51.1,29.80,South,183,0.0,0.0,75,0.00,,SKC,0.00,0.00,VWS V14.00,2013-06-16 08:33:00,
2013-06-16 03:38:00,58.9,51.4,29.80,South,183,0.0,0.0,76,0.00,,SKC,0.00,0.00,VWS V14.00,2013-06-16 08:38:00,
2013-06-16 03:43:00,58.9,51.4,29.80,South,183,0.0,0.0,76,0.00,,SKC,0.00,0.00,VWS V14.00,2013-06-16 08:43:00,
2013-06-16 03:48:00,58.9,51.4,29.80,South,183,0.0,0.0,76,0.00,,SKC,0.00,0.00,VWS V14.00,2013-06-16 08:48:00,
2013-06-16 03:53:00,58.9,51.4,29.80,South,184,0.0,0.0,76,0.00,,SKC,0.00,0.00,VWS V14.00,2013-06-16 08:53:00,
2013-06-16 03:58:00,58.9,51.4,29.80,South,185,0.0,0.0,76,0.00,,SKC,0.00,0.00,VWS V14.00,2013-06-16 08:58:00,
2013-06-16 04:03:00,59.1,51.5,29.81,South,185,0.0,0.0,76,0.00,,SKC,0.00,0.00,VWS V14.00,2013-06-16 09:03:00,
2013-06-16 04:08:00,59.2,51.7,29.80,South,185,0.0,0.0,76,0.00,,SKC,0.00,0.00,VWS V14.00,2013-06-16 09:08:00,
2013-06-16 04:13:00,59.3,51.8,29.80,South,185,0.0,0.0,76,0.00,,SKC,0.00,0.00,VWS V14.00,2013-06-16 09:13:00,
2013-06-16 04:18:00,59.2,51.7,29.81,South,185,0.0,0.0,76,0.00,,SKC,0.00,0.00,VWS V14.00,2013-06-16 09:18:00,
2013-06-16 04:23:00,59.1,51.5,29.81,South,185,0.0,0.0,76,0.00,,SKC,0.00,0.00,VWS V14.00,2013-06-16 09:23:00,
2013-06-16 04:28:00,59.0,51.5,29.81,South,185,0.0,0.0,76,0.00,,SKC,0.00,0.00,VWS V14.00,2013-06-16 09:28:00,
2013-06-16 04:33:00,58.8,51.6,29.81,South,185,0.0,0.0,77,0.00,,SKC,0.00,0.00,VWS V14.00,2013-06-16 09:33:00,
2013-06-16 04:38:00,58.6,51.4,29.81,South,185,0.0,0.0,77,0.00,,SKC,0.00,0.00,VWS V14.00,2013-06-16 09:38:00,
2013-06-16 04:43:00,58.5,51.3,29.81,South,185,0.0,0.0,77,0.00,,SKC,0.00,0.00,VWS V14.00,2013-06-16 09:43:00,
2013-06-16 04:48:00,58.3,51.1,29.82,South,185,0.0,0.0,77,0.00,,SKC,0.00,0.00,VWS V14.00,2013-06-16 09:48:00,
2013-06-16 04:53:00,58.1,50.9,29.82,South,185,0.0,0.0,77,0.00,,SKC,0.00,0.00,VWS V14.00,2013-06-16 09:53:00,
2013-06-16 04:58:00,58.0,51.2,29.82,South,186,0.0,0.0,78,0.00,,SKC,0.00,0.00,VWS V14.00,2013-06-16 09:58:00,
2013-06-16 05:03:00,58.0,51.5,29.82,South,186,0.0,0.0,79,0.00,,SKC,0.00,0.00,VWS V14.00,2013-06-16 10:03:00,
2013-06-16 05:09:00,58.2,51.7,29.82,South,186,0.0,0.0,79,0.00,,SKC,0.00,0.00,VWS V14.00,2013-06-16 10:09:00,
2013-06-16 05:14:00,58.3,51.8,29.83,South,186,0.0,0.0,79,0.00,,SKC,0.00,0.00,VWS V14.00,2013-06-16 10:14:00,
2013-06-16 05:19:00,58.4,51.9,29.83,South,186,0.0,0.0,79,0.00,,SKC,0.00,0.00,VWS V14.00,2013-06-16 10:19:00,
2013-06-16 05:24:00,58.5,52.0,29.83,South,186,0.0,0.0,79,0.00,,SKC,0.00,0.00,VWS V14.00,2013-06-16 10:24:00,
2013-06-16 05:29:00,58.6,52.1,29.82,South,186,0.0,0.0,79,0.00,,SKC,0.00,0.00,VWS V14.00,2013-06-16 10:29:00,
2013-06-16 05:34:00,58.6,52.1,29.82,South,186,0.0,0.0,79,0.00,,SKC,0.00,5.00,VWS V14.00,2013-06-16 10:34:00,
2013-06-16 05:39:00,58.7,52.6,29.82,South,186,0.0,0.0,80,0.00,,SKC,0.00,7.00,VWS V14.00,2013-06-16 10:39:00,
2013-06-16 05:44:00,58.6,52.5,29.82,South,185,0.0,0.0,80,0.00,,SKC,0.00,9.00,VWS V14.00,2013-06-16 10:44:00,
2013-06-16 05:49:00,58.6,52.5,29.82,South,185,0.0,0.0,80,0.00,,SKC,0.00,11.00,VWS V14.00,2013-06-16 10:49:00,
2013-06-16 05:54:00,58.4,52.3,29.82,South,185,0.0,0.0,80,0.00,,SKC,0.00,12.00,VWS V14.00,2013-06-16 10:54:00,
2013-06-16 05:59:00,58.4,52.3,29.82,South,185,0.0,0.0,80,0.00,,SKC,0.00,14.00,VWS V14.00,2013-06-16 10:59:00,
2013-06-16 06:04:00,58.3,52.2,29.83,South,185,0.0,0.0,80,0.00,,SKC,0.00,16.00,VWS V14.00,2013-06-16 11:04:00,
2013-06-16 06:09:00,58.2,52.4,29.83,South,185,0.0,0.0,81,0.00,,SKC,0.00,16.00,VWS V14.00,2013-06-16 11:09:00,
2013-06-16 06:14:00,58.2,52.4,29.83,South,185,0.0,0.0,81,0.00,,SKC,0.00,18.00,VWS V14.00,2013-06-16 11:14:00,
2013-06-16 06:19:00,58.2,52.7,29.83,South,186,0.0,0.0,82,0.00,,SKC,0.00,19.00,VWS V14.00,2013-06-16 11:19:00,
2013-06-16 06:24:00,58.2,52.4,29.83,South,187,0.0,0.0,81,0.00,,SKC,0.00,21.00,VWS V14.00,2013-06-16 11:24:00,
2013-06-16 06:29:00,58.2,52.4,29.83,NW,306,2.0,2.0,81,0.00,,SKC,0.00,21.00,VWS V14.00,2013-06-16 11:29:00,
2013-06-16 06:34:00,58.2,52.4,29.83,NW,306,2.0,2.0,81,0.00,,SKC,0.00,21.00,VWS V14.00,2013-06-16 11:34:00,
2013-06-16 06:39:00,58.2,52.4,29.83,NW,306,2.0,2.0,81,0.00,,SKC,0.00,21.00,VWS V14.00,2013-06-16 11:39:00,
2013-06-16 06:44:00,58.2,52.4,29.83,NW,306,2.0,2.0,81,0.00,,SKC,0.00,21.00,VWS V14.00,2013-06-16 11:44:00,
2013-06-16 06:49:00,58.2,52.4,29.83,NW,306,2.0,2.0,81,0.00,,SKC,0.00,21.00,VWS V14.00,2013-06-16 11:49:00,
2013-06-16 06:54:00,58.4,53.3,29.83,NW,310,0.0,0.0,83,0.00,,SKC,0.00,26.00,VWS V14.00,2013-06-16 11:54:00,
2013-06-16 06:59:00,58.7,53.6,29.83,NW,311,0.0,1.0,83,0.00,,SKC,0.00,26.00,VWS V14.00,2013-06-16 11:59:00,
2013-06-16 07:04:00,59.1,54.0,29.83,NW,310,0.0,0.0,83,0.00,,SKC,0.00,28.00,VWS V14.00,2013-06-16 12:04:00,
2013-06-16 07:09:00,59.5,54.0,29.84,NW,310,1.0,1.0,82,0.00,,SKC,0.00,28.00,VWS V14.00,2013-06-16 12:09:00,
2013-06-16 07:14:00,59.9,54.1,29.83,NW,310,0.0,2.0,81,0.00,,SKC,0.00,30.00,VWS V14.00,2013-06-16 12:14:00,
2013-06-16 07:19:00,60.4,54.5,29.84,NW,310,0.0,1.0,81,0.00,,SKC,0.00,32.00,VWS V14.00,2013-06-16 12:19:00,
2013-06-16 07:24:00,60.9,54.3,29.84,NW,310,0.0,2.0,79,0.00,,SKC,0.00,58.00,VWS V14.00,2013-06-16 12:24:00,
2013-06-16 07:29:00,61.3,54.7,29.84,NW,310,1.0,1.0,79,0.00,,SKC,0.00,93.00,VWS V14.00,2013-06-16 12:29:00,
2013-06-16 07:34:00,61.9,55.0,29.84,NW,310,0.0,1.0,78,0.00,,SKC,0.00,156.00,VWS V14.00,2013-06-16 12:34:00,
2013-06-16 07:39:00,62.4,54.8,29.84,WNW,294,1.0,3.0,76,0.00,,SKC,0.00,227.00,VWS V14.00,2013-06-16 12:39:00,
2013-06-16 07:44:00,63.0,55.0,29.84,WNW,294,0.0,2.0,75,0.00,,SKC,0.00,292.00,VWS V14.00,2013-06-16 12:44:00,
2013-06-16 07:49:00,63.6,55.9,29.84,WNW,294,2.0,2.0,76,0.00,,SKC,0.00,338.00,VWS V14.00,2013-06-16 12:49:00,
2013-06-16 07:54:00,64.2,56.1,29.84,West,270,1.0,3.0,75,0.00,,SKC,0.00,362.00,VWS V14.00,2013-06-16 12:54:00,
2013-06-16 07:59:00,64.8,56.7,29.83,SW,229,3.0,3.0,75,0.00,,SKC,0.00,378.00,VWS V14.00,2013-06-16 12:59:00,
2013-06-16 08:04:00,65.4,56.2,29.84,SW,229,1.0,3.0,72,0.00,,SKC,0.00,392.00,VWS V14.00,2013-06-16 13:04:00,
2013-06-16 08:09:00,66.0,56.7,29.84,SW,229,1.0,2.0,72,0.00,,SKC,0.00,408.00,VWS V14.00,2013-06-16 13:09:00,
2013-06-16 08:14:00,66.5,57.2,29.83,SW,232,2.0,2.0,72,0.00,,SKC,0.00,422.00,VWS V14.00,2013-06-16 13:14:00,
2013-06-16 08:20:00,67.1,57.0,29.83,West,269,3.0,4.0,70,0.00,,SKC,0.00,438.00,VWS V14.00,2013-06-16 13:20:00,
2013-06-16 08:25:00,67.4,56.1,29.83,West,271,2.0,4.0,67,0.00,,SKC,0.00,452.00,VWS V14.00,2013-06-16 13:25:00,
2013-06-16 08:30:00,67.8,56.5,29.83,West,276,1.0,4.0,67,0.00,,SKC,0.00,466.00,VWS V14.00,2013-06-16 13:30:00,
2013-06-16 08:35:00,68.2,56.4,29.84,WSW,240,2.0,4.0,66,0.00,,SKC,0.00,480.00,VWS V14.00,2013-06-16 13:35:00,
2013-06-16 08:40:00,68.6,57.2,29.84,WSW,248,2.0,3.0,67,0.00,,SKC,0.00,494.00,VWS V14.00,2013-06-16 13:40:00,
2013-06-16 08:45:00,69.0,58.0,29.84,WSW,248,0.0,2.0,68,0.00,,SKC,0.00,506.00,VWS V14.00,2013-06-16 13:45:00,
2013-06-16 08:50:00,69.4,57.6,29.84,NW,319,1.0,2.0,66,0.00,,SKC,0.00,524.00,VWS V14.00,2013-06-16 13:50:00,
2013-06-16 08:55:00,69.9,58.5,29.84,NW,319,0.0,1.0,67,0.00,,SKC,0.00,538.00,VWS V14.00,2013-06-16 13:55:00,
2013-06-16 09:00:00,70.5,57.8,29.84,NW,317,0.0,2.0,64,0.00,,SKC,0.00,550.00,VWS V14.00,2013-06-16 14:00:00,
2013-06-16 09:05:00,71.2,58.0,29.84,West,270,1.0,2.0,63,0.00,,SKC,0.00,563.00,VWS V14.00,2013-06-16 14:05:00,
2013-06-16 09:10:00,71.7,58.0,29.84,SW,231,2.0,4.0,62,0.00,,SKC,0.00,577.00,VWS V14.00,2013-06-16 14:10:00,
2013-06-16 09:15:00,72.1,57.9,29.84,WSW,252,1.0,2.0,61,0.00,,SKC,0.00,591.00,VWS V14.00,2013-06-16 14:15:00,
2013-06-16 09:20:00,72.5,57.8,29.84,West,279,1.0,5.0,60,0.00,,SKC,0.00,606.00,VWS V14.00,2013-06-16 14:20:00,
2013-06-16 09:25:00,72.9,57.3,29.84,WNW,287,1.0,4.0,58,0.00,,SKC,0.00,619.00,VWS V14.00,2013-06-16 14:25:00,
2013-06-16 09:30:00,73.3,56.7,29.84,WNW,300,2.0,5.0,56,0.00,,SKC,0.00,633.00,VWS V14.00,2013-06-16 14:30:00,
2013-06-16 09:35:00,73.7,59.4,29.84,SW,233,3.0,5.0,61,0.00,,SKC,0.00,647.00,VWS V14.00,2013-06-16 14:35:00,
2013-06-16 09:40:00,74.1,58.9,29.84,West,267,1.0,3.0,59,0.00,,SKC,0.00,659.00,VWS V14.00,2013-06-16 14:40:00,
2013-06-16 09:45:00,74.5,58.8,29.84,West,275,2.0,3.0,58,0.00,,SKC,0.00,668.00,VWS V14.00,2013-06-16 14:45:00,
2013-06-16 09:50:00,74.9,57.2,29.84,WNW,287,3.0,5.0,54,0.00,,SKC,0.00,686.00,VWS V14.00,2013-06-16 14:50:00,
2013-06-16 09:55:00,75.1,57.8,29.84,WSW,250,2.0,4.0,55,0.00,,SKC,0.00,698.00,VWS V14.00,2013-06-16 14:55:00,
2013-06-16 10:00:00,75.3,58.0,29.83,SW,214,2.0,5.0,55,0.00,,SKC,0.00,708.00,VWS V14.00,2013-06-16 15:00:00,
2013-06-16 10:05:00,75.7,57.9,29.84,West,272,3.0,9.0,54,0.00,,SKC,0.00,722.00,VWS V14.00,2013-06-16 15:05:00,
2013-06-16 10:10:00,76.1,57.2,29.84,WSW,250,2.0,3.0,52,0.00,,SKC,0.00,737.00,VWS V14.00,2013-06-16 15:10:00,
2013-06-16 10:15:00,76.4,58.0,29.84,SW,234,2.0,5.0,53,0.00,,SKC,0.00,747.00,VWS V14.00,2013-06-16 15:15:00,
2013-06-16 10:20:00,76.6,56.6,29.84,NW,304,1.0,3.0,50,0.00,,SKC,0.00,756.00,VWS V14.00,2013-06-16 15:20:00,
2013-06-16 10:25:00,77.0,56.4,29.83,WSW,254,5.0,7.0,49,0.00,,SKC,0.00,765.00,VWS V14.00,2013-06-16 15:25:00,
2013-06-16 10:30:00,77.3,56.7,29.83,WSW,251,6.0,7.0,49,0.00,,SKC,0.00,772.00,VWS V14.00,2013-06-16 15:30:00,
2013-06-16 10:35:00,77.6,56.4,29.83,West,277,3.0,7.0,48,0.00,,SKC,0.00,780.00,VWS V14.00,2013-06-16 15:35:00,
2013-06-16 10:40:00,77.8,55.4,29.83,WNW,294,3.0,9.0,46,0.00,,SKC,0.00,791.00,VWS V14.00,2013-06-16 15:40:00,
2013-06-16 10:45:00,78.1,56.2,29.83,West,269,1.0,6.0,47,0.00,,SKC,0.00,805.00,VWS V14.00,2013-06-16 15:45:00,
2013-06-16 10:50:00,78.5,54.2,29.83,West,266,2.0,7.0,43,0.00,,SKC,0.00,809.00,VWS V14.00,2013-06-16 15:50:00,
2013-06-16 10:55:00,78.8,55.1,29.82,West,277,3.0,4.0,44,0.00,,SKC,0.00,821.00,VWS V14.00,2013-06-16 15:55:00,
2013-06-16 11:00:00,79.2,54.8,29.82,NNW,340,5.0,5.0,43,0.00,,SKC,0.00,831.00,VWS V14.00,2013-06-16 16:00:00,
2013-06-16 11:05:00,79.4,55.0,29.82,NW,317,2.0,9.0,43,0.00,,SKC,0.00,844.00,VWS V14.00,2013-06-16 16:05:00,
2013-06-16 11:10:00,79.7,56.5,29.81,WSW,257,0.0,4.0,45,0.00,,SKC,0.00,858.00,VWS V14.00,2013-06-16 16:10:00,
2013-06-16 11:15:00,80.0,53.5,29.81,NNW,341,1.0,5.0,40,0.00,,SKC,0.00,867.00,VWS V14.00,2013-06-16 16:15:00,
2013-06-16 11:21:00,80.4,53.2,29.82,NW,319,5.0,7.0,39,0.00,,SKC,0.00,872.00,VWS V14.00,2013-06-16 16:21:00,
2013-06-16 11:26:00,80.5,53.3,29.81,WSW,256,2.0,7.0,39,0.00,,SKC,0.00,881.00,VWS V14.00,2013-06-16 16:26:00,
2013-06-16 11:31:00,80.6,51.2,29.81,North,9,3.0,7.0,36,0.00,,SKC,0.00,889.00,VWS V14.00,2013-06-16 16:31:00,
2013-06-16 11:36:00,80.7,54.8,29.82,NW,305,1.0,4.0,41,0.00,,SKC,0.00,896.00,VWS V14.00,2013-06-16 16:36:00,
2013-06-16 11:41:00,80.8,51.4,29.81,NW,326,5.0,15.0,36,0.00,,SKC,0.00,905.00,VWS V14.00,2013-06-16 16:41:00,
2013-06-16 11:46:00,80.9,55.0,29.81,WNW,284,2.0,8.0,41,0.00,,SKC,0.00,907.00,VWS V14.00,2013-06-16 16:46:00,
2013-06-16 11:51:00,81.2,53.9,29.81,WNW,301,1.0,4.0,39,0.00,,SKC,0.00,912.00,VWS V14.00,2013-06-16 16:51:00,
2013-06-16 11:56:00,81.4,54.1,29.81,NNW,339,1.0,5.0,39,0.00,,SKC,0.00,918.00,VWS V14.00,2013-06-16 16:56:00,
2013-06-16 12:01:00,81.4,51.9,29.81,NW,309,2.0,9.0,36,0.00,,SKC,0.00,919.00,VWS V14.00,2013-06-16 17:01:00,
2013-06-16 12:06:00,81.4,51.9,29.81,WSW,242,3.0,6.0,36,0.00,,SKC,0.00,925.00,VWS V14.00,2013-06-16 17:06:00,
2013-06-16 12:11:00,81.4,52.7,29.81,SW,231,4.0,6.0,37,0.00,,SKC,0.00,925.00,VWS V14.00,2013-06-16 17:11:00,
2013-06-16 12:16:00,81.6,53.6,29.80,WNW,292,3.0,6.0,38,0.00,,SKC,0.00,926.00,VWS V14.00,2013-06-16 17:16:00,
2013-06-16 12:21:00,81.7,51.4,29.80,West,259,2.0,13.0,35,0.00,,SKC,0.00,939.00,VWS V14.00,2013-06-16 17:21:00,
2013-06-16 12:26:00,81.8,53.0,29.80,WNW,294,5.0,11.0,37,0.00,,SKC,0.00,944.00,VWS V14.00,2013-06-16 17:26:00,
2013-06-16 12:31:00,81.8,52.3,29.80,WSW,244,4.0,10.0,36,0.00,,SKC,0.00,944.00,VWS V14.00,2013-06-16 17:31:00,
2013-06-16 12:35:00,82.2,52.6,29.80,WNW,299,7.0,9.0,36,0.00,,SKC,0.00,954.00,VWS V14.00,2013-06-16 17:35:00,
2013-06-16 12:45:00,82.3,51.9,29.80,NNE,27,5.0,9.0,35,0.00,,SKC,0.00,1009.00,VWS V14.00,2013-06-16 17:45:00,
2013-06-16 12:50:00,82.4,53.5,29.80,West,259,6.0,10.0,37,0.00,,SKC,0.00,967.00,VWS V14.00,2013-06-16 17:50:00,
2013-06-16 12:55:00,82.5,51.3,29.80,NW,309,3.0,10.0,34,0.00,,SKC,0.00,998.00,VWS V14.00,2013-06-16 17:55:00,
2013-06-16 13:00:00,82.7,54.5,29.80,NE,50,4.0,4.0,38,0.00,,SKC,0.00,1000.00,VWS V14.00,2013-06-16 18:00:00,
2013-06-16 13:05:00,82.9,53.2,29.81,WNW,284,1.0,9.0,36,0.00,,SKC,0.00,135.00,VWS V14.00,2013-06-16 18:05:00,
2013-06-16 13:10:00,82.9,53.2,29.80,WNW,296,2.0,8.0,36,0.00,,SKC,0.00,995.00,VWS V14.00,2013-06-16 18:10:00,
2013-06-16 13:15:00,83.0,51.8,29.81,WNW,284,6.0,10.0,34,0.00,,SKC,0.00,988.00,VWS V14.00,2013-06-16 18:15:00,
2013-06-16 13:20:00,83.2,51.9,29.81,WNW,296,3.0,8.0,34,0.00,,SKC,0.00,974.00,VWS V14.00,2013-06-16 18:20:00,
2013-06-16 13:25:00,83.4,53.7,29.80,West,259,4.0,9.0,36,0.00,,SKC,0.00,891.00,VWS V14.00,2013-06-16 18:25:00,
2013-06-16 13:30:00,83.6,52.3,29.80,NE,40,4.0,4.0,34,0.00,,SKC,0.00,963.00,VWS V14.00,2013-06-16 18:30:00,
2013-06-16 13:35:00,83.7,51.6,29.80,WNW,282,3.0,11.0,33,0.00,,SKC,0.00,954.00,VWS V14.00,2013-06-16 18:35:00,
2013-06-16 13:40:00,83.8,51.7,29.80,WSW,257,2.0,13.0,33,0.00,,SKC,0.00,984.00,VWS V14.00,2013-06-16 18:40:00,
2013-06-16 13:45:00,83.9,50.9,29.80,WNW,289,1.0,10.0,32,0.00,,SKC,0.00,933.00,VWS V14.00,2013-06-16 18:45:00,
2013-06-16 13:50:00,84.0,53.4,29.80,WNW,287,3.0,9.0,35,0.00,,SKC,0.00,923.00,VWS V14.00,2013-06-16 18:50:00,
2013-06-16 13:55:00,84.1,52.7,29.80,WNW,288,3.0,10.0,34,0.00,,SKC,0.00,965.00,VWS V14.00,2013-06-16 18:55:00,
2013-06-16 14:00:00,84.1,53.5,29.80,West,276,4.0,7.0,35,0.00,,SKC,0.00,863.00,VWS V14.00,2013-06-16 19:00:00,
2013-06-16 14:05:00,84.2,52.0,29.80,WSW,257,3.0,10.0,33,0.00,,SKC,0.00,925.00,VWS V14.00,2013-06-16 19:05:00,
2013-06-16 14:10:00,84.3,50.4,29.80,WNW,294,3.0,12.0,31,0.00,,SKC,0.00,923.00,VWS V14.00,2013-06-16 19:10:00,
2013-06-16 14:17:00,84.4,53.0,29.80,WSW,257,3.0,11.0,34,0.00,,SKC,0.00,875.00,VWS V14.00,2013-06-16 19:17:00,
2013-06-16 14:22:00,84.3,52.9,29.80,West,279,2.0,12.0,34,0.00,,SKC,0.00,766.00,VWS V14.00,2013-06-16 19:22:00,
2013-06-16 14:27:00,84.2,52.8,29.80,West,280,4.0,10.0,34,0.00,,SKC,0.00,729.00,VWS V14.00,2013-06-16 19:27:00,
2013-06-16 14:32:00,84.0,53.4,29.80,WNW,289,1.0,9.0,35,0.00,,SKC,0.00,415.00,VWS V14.00,2013-06-16 19:32:00,
2013-06-16 14:37:00,83.9,52.6,29.80,WSW,244,5.0,11.0,34,0.00,,SKC,0.00,367.00,VWS V14.00,2013-06-16 19:37:00,
2013-06-16 14:42:00,83.7,54.7,29.80,NNW,331,1.0,11.0,37,0.00,,SKC,0.00,726.00,VWS V14.00,2013-06-16 19:42:00,
2013-06-16 14:47:00,83.6,53.1,29.79,SSW,210,3.0,12.0,35,0.00,,SKC,0.00,568.00,VWS V14.00,2013-06-16 19:47:00,
2013-06-16 14:52:00,83.6,54.6,29.79,West,259,5.0,10.0,37,0.00,,SKC,0.00,842.00,VWS V14.00,2013-06-16 19:52:00,
2013-06-16 14:57:00,83.6,53.8,29.79,SW,227,3.0,10.0,36,0.00,,SKC,0.00,842.00,VWS V14.00,2013-06-16 19:57:00,
2013-06-16 15:02:00,83.8,54.8,29.79,WNW,286,2.0,14.0,37,0.00,,SKC,0.00,877.00,VWS V14.00,2013-06-16 20:02:00,
2013-06-16 15:07:00,84.1,55.0,29.78,West,277,3.0,18.0,37,0.00,,SKC,0.00,921.00,VWS V14.00,2013-06-16 20:07:00,
2013-06-16 15:12:00,84.6,56.9,29.79,WSW,242,5.0,8.0,39,0.00,,SKC,0.00,933.00,VWS V14.00,2013-06-16 20:12:00,
2013-06-16 15:17:00,84.8,56.4,29.78,NW,316,3.0,6.0,38,0.00,,SKC,0.00,840.00,VWS V14.00,2013-06-16 20:17:00,
2013-06-16 15:22:00,85.1,57.4,29.78,SW,234,5.0,18.0,39,0.00,,SKC,0.00,865.00,VWS V14.00,2013-06-16 20:22:00,
2013-06-16 15:27:00,85.2,52.9,29.78,North,360,4.0,13.0,33,0.00,,SKC,0.00,278.00,VWS V14.00,2013-06-16 20:27:00,
2013-06-16 15:32:00,85.0,56.6,29.78,West,273,3.0,6.0,38,0.00,,SKC,0.00,837.00,VWS V14.00,2013-06-16 20:32:00,
2013-06-16 15:37:00,85.1,55.2,29.78,NNW,340,3.0,6.0,36,0.00,,SKC,0.00,666.00,VWS V14.00,2013-06-16 20:37:00,
2013-06-16 15:42:00,85.1,55.2,29.77,WNW,288,6.0,13.0,36,0.00,,SKC,0.00,373.00,VWS V14.00,2013-06-16 20:42:00,
2013-06-16 15:47:00,84.7,56.3,29.77,WNW,291,2.0,11.0,38,0.00,,SKC,0.00,306.00,VWS V14.00,2013-06-16 20:47:00,
2013-06-16 15:52:00,84.7,56.3,29.77,SSW,195,0.0,5.0,38,0.00,,SKC,0.00,265.00,VWS V14.00,2013-06-16 20:52:00,
2013-06-16 15:57:00,84.5,56.1,29.77,West,272,1.0,9.0,38,0.00,,SKC,0.00,269.00,VWS V14.00,2013-06-16 20:57:00,
2013-06-16 16:02:00,84.1,56.5,29.77,WNW,284,4.0,6.0,39,0.00,,SKC,0.00,209.00,VWS V14.00,2013-06-16 21:02:00,
2013-06-16 16:07:00,83.5,56.7,29.77,WSW,258,4.0,13.0,40,0.00,,SKC,0.00,190.00,VWS V14.00,2013-06-16 21:07:00,
2013-06-16 16:12:00,82.8,54.6,29.77,WSW,257,1.0,11.0,38,0.00,,SKC,0.00,130.00,VWS V14.00,2013-06-16 21:12:00,
2013-06-16 16:17:00,82.3,55.6,29.77,WSW,258,3.0,11.0,40,0.00,,SKC,0.00,88.00,VWS V14.00,2013-06-16 21:17:00,
2013-06-16 16:22:00,81.8,55.8,29.77,WSW,252,2.0,7.0,41,0.00,,SKC,0.00,53.00,VWS V14.00,2013-06-16 21:22:00,
2013-06-16 16:27:00,81.4,55.5,29.77,WNW,287,6.0,6.0,41,0.00,,SKC,0.00,40.00,VWS V14.00,2013-06-16 21:27:00,
2013-06-16 16:32:00,81.1,56.5,29.77,WNW,292,6.0,9.0,43,0.00,,SKC,0.00,37.00,VWS V14.00,2013-06-16 21:32:00,
2013-06-16 16:37:00,80.7,55.5,29.77,NW,309,2.0,5.0,42,0.00,,SKC,0.00,30.00,VWS V14.00,2013-06-16 21:37:00,
2013-06-16 16:42:00,80.3,57.7,29.79,NE,44,2.0,4.0,46,0.00,,SKC,0.00,28.00,VWS V14.00,2013-06-16 21:42:00,
2013-06-16 16:47:00,79.4,57.4,29.79,NNW,329,6.0,12.0,47,0.00,,SKC,0.00,74.00,VWS V14.00,2013-06-16 21:47:00,
2013-06-16 16:52:00,78.0,57.9,29.79,WSW,247,1.0,6.0,50,0.00,,SKC,0.00,77.00,VWS V14.00,2013-06-16 21:52:00,
2013-06-16 16:58:00,76.4,57.0,29.78,WNW,292,1.0,5.0,51,0.00,,SKC,0.00,79.00,VWS V14.00,2013-06-16 21:58:00,
2013-06-16 17:03:00,75.1,56.8,29.79,WNW,292,0.0,2.0,53,0.00,,SKC,0.00,95.00,VWS V14.00,2013-06-16 22:03:00,
2013-06-16 17:08:00,74.1,58.4,29.79,WNW,292,1.0,1.0,58,0.00,,SKC,0.00,69.00,VWS V14.00,2013-06-16 22:08:00,
2013-06-16 17:13:00,73.1,58.4,29.80,WNW,292,3.0,3.0,60,0.00,,SKC,0.00,77.00,VWS V14.00,2013-06-16 22:13:00,
2013-06-16 17:18:00,72.2,60.7,29.81,WNW,292,2.0,4.0,67,0.01,,SKC,0.01,130.00,VWS V14.00,2013-06-16 22:18:00,
2013-06-16 17:23:00,71.1,58.3,29.81,NW,311,3.0,11.0,64,0.01,,SKC,0.01,156.00,VWS V14.00,2013-06-16 22:23:00,
2013-06-16 17:28:00,70.6,59.5,29.81,North,355,4.0,4.0,68,0.01,,SKC,0.01,185.00,VWS V14.00,2013-06-16 22:28:00,
2013-06-16 17:33:00,70.5,60.3,29.79,North,360,1.0,5.0,70,0.01,,SKC,0.01,220.00,VWS V14.00,2013-06-16 22:33:00,
2013-06-16 17:38:00,70.7,61.2,29.79,West,261,0.0,4.0,72,0.01,,SKC,0.01,533.00,VWS V14.00,2013-06-16 22:38:00,
2013-06-16 17:43:00,71.3,61.8,29.78,West,277,1.0,6.0,72,0.01,,SKC,0.01,513.00,VWS V14.00,2013-06-16 22:43:00,
2013-06-16 17:48:00,72.0,60.9,29.78,WNW,298,0.0,4.0,68,0.01,,SKC,0.01,202.00,VWS V14.00,2013-06-16 22:48:00,
2013-06-16 17:53:00,72.6,61.0,29.78,WNW,298,1.0,2.0,67,0.01,,SKC,0.01,619.00,VWS V14.00,2013-06-16 22:53:00,
2013-06-16 17:58:00,73.5,61.0,29.78,NW,309,1.0,4.0,65,0.01,,SKC,0.01,582.00,VWS V14.00,2013-06-16 22:58:00,
2013-06-16 18:03:00,74.2,62.1,29.78,WNW,288,0.0,4.0,66,0.01,,SKC,0.01,362.00,VWS V14.00,2013-06-16 23:03:00,
2013-06-16 18:08:00,74.7,60.8,29.77,WNW,288,1.0,2.0,62,0.01,,SKC,0.01,221.00,VWS V14.00,2013-06-16 23:08:00,
2013-06-16 18:13:00,75.1,61.2,29.77,West,277,1.0,3.0,62,0.01,,SKC,0.01,172.00,VWS V14.00,2013-06-16 23:13:00,
2013-06-16 18:18:00,75.3,61.4,29.77,West,277,0.0,2.0,62,0.01,,SKC,0.01,171.00,VWS V14.00,2013-06-16 23:18:00,
2013-06-16 18:23:00,75.3,59.5,29.77,NW,305,0.0,4.0,58,0.00,,SKC,0.01,165.00,VWS V14.00,2013-06-16 23:23:00,
2013-06-16 18:28:00,75.2,60.4,29.76,WSW,243,0.0,3.0,60,0.00,,SKC,0.01,158.00,VWS V14.00,2013-06-16 23:28:00,
2013-06-16 18:33:00,75.3,60.5,29.76,WSW,243,1.0,2.0,60,0.00,,SKC,0.01,364.00,VWS V14.00,2013-06-16 23:33:00,
2013-06-16 18:38:00,75.5,60.2,29.76,SSW,208,3.0,4.0,59,0.00,,SKC,0.01,213.00,VWS V14.00,2013-06-16 23:38:00,
2013-06-16 18:43:00,75.6,61.7,29.76,SSW,208,0.0,2.0,62,0.00,,SKC,0.01,216.00,VWS V14.00,2013-06-16 23:43:00,
2013-06-16 18:48:00,75.8,61.4,29.76,SSW,208,2.0,2.0,61,0.00,,SKC,0.01,417.00,VWS V14.00,2013-06-16 23:48:00,
2013-06-16 18:53:00,76.0,60.2,29.76,WSW,242,2.0,3.0,58,0.00,,SKC,0.01,383.00,VWS V14.00,2013-06-16 23:53:00,
2013-06-16 18:58:00,76.5,60.6,29.76,WSW,242,0.0,3.0,58,0.00,,SKC,0.01,350.00,VWS V14.00,2013-06-16 23:58:00,
2013-06-16 19:03:00,76.9,60.0,29.75,West,267,1.0,4.0,56,0.00,,SKC,0.01,308.00,VWS V14.00,2013-06-17 00:03:00,
2013-06-16 19:08:00,77.5,58.0,29.76,NW,321,0.0,7.0,51,0.00,,SKC,0.01,287.00,VWS V14.00,2013-06-17 00:08:00,
2013-06-16 19:13:00,78.1,58.0,29.76,WSW,250,0.0,7.0,50,0.00,,SKC,0.01,269.00,VWS V14.00,2013-06-17 00:13:00,
2013-06-16 19:18:00,78.7,57.4,29.75,West,259,1.0,12.0,48,0.00,,SKC,0.01,257.00,VWS V14.00,2013-06-17 00:18:00,
2013-06-16 19:23:00,79.1,57.2,29.75,WSW,254,4.0,8.0,47,0.00,,SKC,0.01,248.00,VWS V14.00,2013-06-17 00:23:00,
2013-06-16 19:28:00,79.4,56.8,29.75,NW,315,3.0,6.0,46,0.00,,SKC,0.01,227.00,VWS V14.00,2013-06-17 00:28:00,
2013-06-16 19:33:00,79.6,56.4,29.75,WNW,289,3.0,11.0,45,0.00,,SKC,0.01,213.00,VWS V14.00,2013-06-17 00:33:00,
2013-06-16 19:38:00,79.7,55.2,29.75,SW,217,6.0,7.0,43,0.00,,SKC,0.01,192.00,VWS V14.00,2013-06-17 00:38:00,
2013-06-16 19:43:00,79.7,54.6,29.75,NNW,344,3.0,7.0,42,0.00,,SKC,0.01,174.00,VWS V14.00,2013-06-17 00:43:00,
2013-06-16 19:48:00,79.7,54.6,29.75,WSW,248,1.0,7.0,42,0.00,,SKC,0.01,151.00,VWS V14.00,2013-06-17 00:48:00,
2013-06-16 19:53:00,79.6,55.2,29.75,West,271,5.0,9.0,43,0.00,,SKC,0.01,134.00,VWS V14.00,2013-06-17 00:53:00,
2013-06-16 19:58:00,79.5,55.7,29.75,NW,304,3.0,7.0,44,0.00,,SKC,0.01,120.00,VWS V14.00,2013-06-17 00:58:00,
2013-06-16 20:03:00,79.3,55.5,29.75,WNW,287,1.0,4.0,44,0.00,,SKC,0.01,35.00,VWS V14.00,2013-06-17 01:03:00,
2013-06-16 20:08:00,78.9,55.2,29.75,WSW,246,1.0,4.0,44,0.00,,SKC,0.01,35.00,VWS V14.00,2013-06-17 01:08:00,
2013-06-16 20:13:00,78.6,54.9,29.75,WNW,291,2.0,5.0,44,0.00,,SKC,0.01,72.00,VWS V14.00,2013-06-17 01:13:00,
2013-06-16 20:18:00,78.3,55.2,29.75,NNW,348,1.0,5.0,45,0.00,,SKC,0.01,56.00,VWS V14.00,2013-06-17 01:18:00,
2013-06-16 20:23:00,78.0,55.0,29.75,West,259,2.0,6.0,45,0.00,,SKC,0.01,40.00,VWS V14.00,2013-06-17 01:23:00,
2013-06-16 20:29:00,77.8,55.4,29.74,WNW,300,5.0,5.0,46,0.00,,SKC,0.01,37.00,VWS V14.00,2013-06-17 01:29:00,
2013-06-16 20:34:00,77.6,55.2,29.75,West,279,1.0,2.0,46,0.00,,SKC,0.01,19.00,VWS V14.00,2013-06-17 01:34:00,
2013-06-16 20:39:00,77.4,55.6,29.75,NW,307,0.0,0.0,47,0.00,,SKC,0.01,18.00,VWS V14.00,2013-06-17 01:39:00,
2013-06-16 20:44:00,77.2,56.0,29.75,WSW,246,2.0,2.0,48,0.00,,SKC,0.01,16.00,VWS V14.00,2013-06-17 01:44:00,
2013-06-16 20:49:00,77.0,55.8,29.75,WSW,248,0.0,1.0,48,0.00,,SKC,0.01,14.00,VWS V14.00,2013-06-17 01:49:00,
2013-06-16 20:54:00,76.7,56.1,29.75,WSW,248,1.0,1.0,49,0.00,,SKC,0.01,12.00,VWS V14.00,2013-06-17 01:54:00,
2013-06-16 20:59:00,76.5,55.9,29.74,WSW,248,0.0,2.0,49,0.00,,SKC,0.01,9.00,VWS V14.00,2013-06-17 01:59:00,
2013-06-16 21:04:00,76.2,56.2,29.75,WSW,248,1.0,2.0,50,0.00,,SKC,0.01,7.00,VWS V14.00,2013-06-17 02:04:00,
2013-06-16 21:09:00,75.8,55.9,29.75,WSW,248,1.0,1.0,50,0.00,,SKC,0.01,5.00,VWS V14.00,2013-06-17 02:09:00,
2013-06-16 21:14:00,75.5,55.6,29.75,SW,231,2.0,3.0,50,0.00,,SKC,0.01,0.00,VWS V14.00,2013-06-17 02:14:00,
2013-06-16 21:19:00,75.3,55.9,29.75,WSW,237,3.0,4.0,51,0.00,,SKC,0.01,0.00,VWS V14.00,2013-06-17 02:19:00,
2013-06-16 21:24:00,75.0,55.7,29.75,WSW,238,2.0,3.0,51,0.00,,SKC,0.01,0.00,VWS V14.00,2013-06-17 02:24:00,
2013-06-16 21:29:00,74.8,55.5,29.75,West,270,0.0,2.0,51,0.00,,SKC,0.01,0.00,VWS V14.00,2013-06-17 02:29:00,
2013-06-16 21:34:00,74.6,55.8,29.76,SW,233,2.0,2.0,52,0.00,,SKC,0.01,0.00,VWS V14.00,2013-06-17 02:34:00,
2013-06-16 21:39:00,74.4,55.7,29.76,WSW,238,4.0,4.0,52,0.00,,SKC,0.01,0.00,VWS V14.00,2013-06-17 02:39:00,
2013-06-16 21:44:00,74.2,55.5,29.77,West,260,2.0,2.0,52,0.00,,SKC,0.01,0.00,VWS V14.00,2013-06-17 02:44:00,
2013-06-16 21:49:00,74.0,55.8,29.77,West,264,0.0,1.0,53,0.00,,SKC,0.01,0.00,VWS V14.00,2013-06-17 02:49:00,
2013-06-16 21:54:00,73.8,56.1,29.77,West,262,2.0,3.0,54,0.00,,SKC,0.01,0.00,VWS V14.00,2013-06-17 02:54:00,
2013-06-16 21:59:00,73.6,56.0,29.77,West,262,2.0,3.0,54,0.00,,SKC,0.01,0.00,VWS V14.00,2013-06-17 02:59:00,
2013-06-16 22:04:00,73.4,55.8,29.77,West,269,2.0,2.0,54,0.00,,SKC,0.01,0.00,VWS V14.00,2013-06-17 03:04:00,
2013-06-16 22:09:00,73.2,56.1,29.77,WSW,258,1.0,1.0,55,0.00,,SKC,0.01,0.00,VWS V14.00,2013-06-17 03:09:00,
2013-06-16 22:14:00,73.0,56.4,29.77,WSW,258,1.0,3.0,56,0.00,,SKC,0.01,0.00,VWS V14.00,2013-06-17 03:14:00,
2013-06-16 22:19:00,72.8,56.2,29.77,WSW,246,0.0,4.0,56,0.00,,SKC,0.01,0.00,VWS V14.00,2013-06-17 03:19:00,
2013-06-16 22:24:00,72.6,56.0,29.78,WSW,253,0.0,1.0,56,0.00,,SKC,0.01,0.00,VWS V14.00,2013-06-17 03:24:00,
2013-06-16 22:29:00,72.4,56.3,29.77,WSW,253,1.0,1.0,57,0.00,,SKC,0.01,0.00,VWS V14.00,2013-06-17 03:29:00,
2013-06-16 22:34:00,72.2,56.1,29.78,WSW,244,1.0,2.0,57,0.00,,SKC,0.01,0.00,VWS V14.00,2013-06-17 03:34:00,
2013-06-16 22:39:00,72.0,56.0,29.78,WSW,254,3.0,3.0,57,0.00,,SKC,0.01,0.00,VWS V14.00,2013-06-17 03:39:00,
2013-06-16 22:44:00,71.7,56.2,29.78,WSW,247,2.0,4.0,58,0.00,,SKC,0.01,0.00,VWS V14.00,2013-06-17 03:44:00,
2013-06-16 22:49:00,71.5,56.0,29.78,WSW,247,0.0,2.0,58,0.00,,SKC,0.01,0.00,VWS V14.00,2013-06-17 03:49:00,
2013-06-16 22:54:00,71.4,56.3,29.77,WSW,247,1.0,2.0,59,0.00,,SKC,0.01,0.00,VWS V14.00,2013-06-17 03:54:00,
2013-06-16 22:59:00,71.2,56.6,29.77,WSW,248,3.0,3.0,60,0.00,,SKC,0.01,0.00,VWS V14.00,2013-06-17 03:59:00,
2013-06-16 23:01:00,71.1,56.1,29.77,WSW,248,0.0,3.0,59,0.00,,SKC,0.01,0.00,VWS V14.00,2013-06-17 04:01:00,
2013-06-16 23:03:00,71.0,56.4,29.78,WSW,249,0.0,3.0,60,0.00,,SKC,0.01,0.00,VWS V14.00,2013-06-17 04:03:00,
2013-06-16 23:06:00,70.8,56.2,29.77,WSW,249,0.0,0.0,60,0.00,,SKC,0.01,0.00,VWS V14.00,2013-06-17 04:06:00,
2013-06-16 23:08:00,70.7,56.6,29.77,WSW,249,0.0,0.0,61,0.00,,SKC,0.01,0.00,VWS V14.00,2013-06-17 04:08:00,
2013-06-16 23:13:00,70.4,56.8,29.77,WSW,257,0.0,2.0,62,0.00,,SKC,0.01,0.00,VWS V14.00,2013-06-17 04:13:00,
2013-06-16 23:18:00,70.0,56.8,29.77,NW,305,0.0,2.0,63,0.00,,SKC,0.01,0.00,VWS V14.00,2013-06-17 04:18:00,
2013-06-16 23:23:00,69.6,56.9,29.77,NW,305,0.0,1.0,64,0.00,,SKC,0.01,0.00,VWS V14.00,2013-06-17 04:23:00,
2013-06-16 23:28:00,69.3,57.5,29.78,NW,305,0.0,2.0,66,0.00,,SKC,0.01,0.00,VWS V14.00,2013-06-17 04:28:00,
2013-06-16 23:33:00,68.9,57.1,29.78,West,273,0.0,3.0,66,0.00,,SKC,0.01,0.00,VWS V14.00,2013-06-17 04:33:00,
2013-06-16 23:38:00,68.6,57.2,29.78,West,273,0.0,2.0,67,0.00,,SKC,0.01,0.00,VWS V14.00,2013-06-17 04:38:00,
2013-06-16 23:43:00,68.3,57.3,29.78,West,273,0.0,0.0,68,0.00,,SKC,0.01,0.00,VWS V14.00,2013-06-17 04:43:00,
2013-06-16 23:48:00,68.0,57.5,29.78,West,273,2.0,2.0,69,0.00,,SKC,0.01,0.00,VWS V14.00,2013-06-17 04:48:00,
2013-06-16 23:53:00,67.7,57.2,29.78,WNW,298,0.0,3.0,69,0.00,,SKC,0.01,0.00,VWS V14.00,2013-06-17 04:53:00,
2013-06-16 23:58:00,67.4,56.9,29.78,NNW,331,1.0,3.0,69,0.00,,SKC,0.01,0.00,VWS V14.00,2013-06-17 04:58:00,